This demonstration page uses our WeatherBlox Daily Observations layout. Learn more.

Left ArrowRight Arrow

Hourly Observations for February 20, 2016

Temp ( °F °C ) Dew Point ( °F °C ) Humidity (%) Winds ( mph kmh ) Pressure ( in mb ) Visibility ( mi km ) Precip ( " mm )
12:59 am 00:59 Mostly Cloudy 43 6.1 26 -3.3 51 51 SSW 13 20 30.26 1025 10 16 0.00 0.00
1:59 am 01:59 Mostly Cloudy 44 6.7 23 -5 43 43 SSW 15 24 30.24 1024 10 16 0.00 0.00
2:59 am 02:59 Mostly Cloudy 45 7.2 28 -2.2 52 52 SW 15 24 30.20 1023 10 16 0.00 0.00
3:59 am 03:59 Partly Cloudy 47 8.3 32 0 56 56 SW 16 26 30.18 1022 10 16 0.00 0.00
4:59 am 04:59 Partly Cloudy 46 7.8 35 1.7 66 66 SW 14 22 30.17 1022 10 16 0.00 0.00
5:59 am 05:59 Mostly Clear 47 8.3 37 2.8 69 69 WSW 10 17 30.17 1022 10 16 0.00 0.00
6:59 am 06:59 Mostly Cloudy 48 8.9 40 4.4 74 74 SW 12 19 30.17 1022 10 16 0.00 0.00
7:59 am 07:59 Mostly Cloudy 51 10.6 41 5 69 69 WSW 14 22 30.18 1022 10 16 0.00 0.00
8:59 am 08:59 Cloudy 53 11.7 41 5 64 64 WSW 15 24 30.18 1022 10 16 0.00 0.00
9:59 am 09:59 Mostly Cloudy 57 13.9 41 5 55 55 WSW 16 26 30.17 1022 10 16 0.00 0.00
10:59 am 10:59 Mostly Cloudy 61 16.1 42 5.6 50 50 WSW 14 22 30.15 1021 10 16 0.00 0.00
11:59 am 11:59 Cloudy 62 16.7 42 5.6 48 48 WSW 16 26 30.12 1020 10 16 0.00 0.00
12:59 pm 12:59 Mostly Cloudy 65 18.3 42 5.6 43 43 WSW 14 22 30.10 1019 10 16 0.00 0.00
1:59 pm 13:59 Mostly Cloudy 67 19.4 43 6.1 42 42 WSW 10 17 30.07 1018 10 16 0.00 0.00
2:59 pm 14:59 Cloudy 68 20 42 5.6 39 39 WSW 16 26 30.04 1017 10 16 0.00 0.00
3:59 pm 15:59 Mostly Cloudy 68 20 44 6.7 42 42 WSW 14 22 30.03 1017 10 16 0.00 0.00
4:59 pm 16:59 Mostly Cloudy 65 18.3 45 7.2 49 49 SW 9 15 30.02 1017 10 16 0.00 0.00
5:59 pm 17:59 Mostly Cloudy 63 17.2 45 7.2 52 52 SW 9 15 30.02 1017 10 16 0.00 0.00
6:59 pm 18:59 Mostly Cloudy 61 16.1 47 8.3 60 60 SSW 10 17 30.03 1017 10 16 0.00 0.00
7:59 pm 19:59 Partly Cloudy 60 15.6 47 8.3 62 62 SW 13 20 30.04 1017 10 16 0.00 0.00
8:59 pm 20:59 Mostly Clear 59 15 47 8.3 64 64 SW 13 20 30.03 1017 9 14 0.00 0.00
9:59 pm 21:59 Clear 58 14.4 48 8.9 70 70 SW 12 19 30.04 1017 9 14 0.00 0.00
10:59 pm 22:59 Clear 57 13.9 48 8.9 72 72 SW 10 17 30.04 1017 9 14 0.00 0.00
11:59 pm 23:59 Clear 56 13.3 48 8.9 75 75 SW 12 19 30.03 1017 8 13 0.00 0.00

Powered by AerisWeather